Total_Precipitation_Accumulation
1.82 1.95 2.03 2.02 2.09 2.17 2.31 2.43 2.49 2.32 2.08 1.94 1.93 1.88 1.88 1.94 2.10 1.73 1.68 1.89 1.75 1.63 1.55 1.45 1.41 1.46 1.50 1.56 1.62 1.74 1.85 1.92 2.00 2.06 2.14 2.29 2.41 2.49
1.58 1.68 1.77 1.82 1.93 2.02 2.14 2.24 2.30 2.26 2.16 1.94 1.88 1.83 1.81 1.72 1.88 1.57 1.59 1.76 1.63 1.52 1.43 1.37 1.31 1.32 1.35 1.40 1.46 1.48 1.51 1.52 1.57 1.60 1.64 1.71 1.86 2.07
1.61 1.65 1.71 1.75 1.82 1.81 1.83 1.89 2.02 2.14 2.23 2.14 1.95 1.88 1.88 1.80 1.70 1.51 1.41 1.40 1.39 1.43 1.37 1.33 1.26 1.20 1.22 1.23 1.20 1.20 1.21 1.24 1.28 1.31 1.34 1.42 1.47 1.55
1.50 1.58 1.57 1.55 1.61 1.68 1.73 1.72 1.77 1.89 2.01 2.07 1.94 1.78 1.77 1.75 1.69 1.61 1.36 1.22 1.22 1.23 1.15 1.09 1.10 1.07 1.02 1.03 1.05 1.02 1.00 1.03 1.07 1.11 1.14 1.20 1.27 1.33
1.31 1.33 1.34 1.37 1.34 1.38 1.44 1.50 1.52 1.54 1.70 1.76 1.74 1.68 1.63 1.56 1.61 1.58 1.43 1.46 1.21 1.14 1.04 0.95 0.92 0.90 0.86 0.84 0.88 0.94 0.92 0.86 0.85 0.88 0.92 0.99 1.06 1.11
1.04 1.06 1.12 1.21 1.24 1.27 1.26 1.30 1.33 1.45 1.54 1.61 1.57 1.56 1.57 1.46 1.48 1.53 1.48 1.41 1.27 1.04 1.02 0.88 0.80 0.73 0.72 0.74 0.73 0.75 0.80 0.84 0.90 0.88 0.82 0.76 0.78 0.81
0.84 0.82 0.82 0.97 1.08 1.05 0.97 1.08 1.22 1.38 1.45 1.48 1.42 1.35 1.32 1.39 1.38 1.33 1.33 1.35 1.29 1.14 1.15 0.98 0.88 0.82 0.82 0.80 0.76 0.71 0.73 0.74 0.75 0.76 0.74 0.70 0.69 0.68
0.83 0.83 0.75 0.78 0.81 0.80 0.79 0.92 1.11 1.16 1.26 1.38 1.38 1.35 1.32 1.34 1.32 1.31 1.38 1.43 1.44 1.21 1.18 1.10 0.99 0.99 0.93 0.87 0.81 0.71 0.68 0.74 0.73 0.69 0.68 0.67 0.67 0.67
0.83 0.81 0.70 0.64 0.71 0.73 0.74 0.78 0.86 0.87 0.98 1.21 1.36 1.31 1.32 1.38 1.44 1.39 1.47 1.51 1.45 1.34 1.38 1.32 1.12 1.02 0.81 0.73 0.76 0.67 0.65 0.69 0.73 0.70 0.69 0.68 0.68 0.69
0.79 0.79 0.80 0.74 0.69 0.70 0.69 0.74 0.83 0.88 0.89 0.94 1.17 1.21 1.18 1.29 1.40 1.46 1.53 1.51 1.46 1.41 1.46 1.46 1.16 1.07 0.87 0.87 0.80 0.65 0.62 0.62 0.67 0.69 0.69 0.69 0.70 0.74
0.69 0.63 0.67 0.70 0.68 0.65 0.71 0.85 0.92 0.97 0.81 0.81 0.92 1.02 1.05 1.13 1.21 1.30 1.50 1.64 1.57 1.38 1.36 1.44 1.24 1.13 1.02 0.97 0.86 0.75 0.65 0.62 0.59 0.61 0.63 0.66 0.72 0.80
0.68 0.64 0.58 0.57 0.57 0.59 0.70 0.84 0.93 0.94 0.86 0.86 1.03 1.12 1.10 1.19 1.21 1.31 1.54 1.62 1.54 1.50 1.33 1.37 1.33 1.31 1.27 1.02 0.92 0.84 0.78 0.71 0.62 0.61 0.62 0.64 0.73 0.77
0.65 0.68 0.61 0.50 0.47 0.50 0.63 0.71 0.78 0.78 0.89 1.06 1.15 1.18 1.20 1.28 1.27 1.27 1.42 1.50 1.56 1.59 1.35 1.36 1.39 1.41 1.48 1.22 0.98 0.90 0.89 0.87 0.84 0.84 0.82 0.76 0.75 0.74
0.69 0.70 0.61 0.50 0.46 0.49 0.57 0.63 0.66 0.76 0.96 1.14 1.23 1.23 1.16 1.15 1.19 1.19 1.30 1.39 1.43 1.39 1.30 1.36 1.51 1.52 1.44 1.25 1.08 0.94 0.94 1.01 1.10 1.18 1.16 1.12 0.98 0.92
0.61 0.57 0.53 0.51 0.50 0.60 0.63 0.64 0.75 0.97 1.11 1.17 1.25 1.25 1.15 1.09 1.09 1.06 1.15 1.31 1.30 1.12 0.99 1.08 1.31 1.34 1.38 1.31 1.20 1.13 1.11 1.11 1.22 1.38 1.43 1.36 1.25 1.12
0.54 0.54 0.59 0.63 0.65 0.74 0.83 0.93 0.97 1.03 1.04 1.12 1.18 1.13 1.02 0.99 1.07 1.07 1.14 1.23 1.28 1.17 0.98 0.94 1.06 1.22 1.32 1.25 1.24 1.24 1.22 1.31 1.31 1.41 1.57 1.60 1.45 1.21
0.44 0.61 0.81 0.87 0.94 1.00 1.03 1.07 1.12 1.07 1.01 1.02 1.05 1.05 1.01 1.00 1.01 0.99 1.06 1.14 1.23 1.18 1.07 1.00 1.02 1.08 1.10 1.13 1.18 1.17 1.19 1.28 1.39 1.47 1.63 1.77 1.71 1.42
0.44 0.70 0.82 0.87 0.95 0.98 0.98 1.01 1.07 1.10 1.04 1.00 0.99 0.98 0.97 0.96 0.99 0.95 0.98 1.11 1.19 1.09 1.02 0.98 0.95 1.00 1.02 1.00 1.01 1.07 1.14 1.29 1.43 1.49 1.49 1.62 1.81 1.64
0.60 0.77 0.80 0.85 0.91 0.87 0.87 0.91 0.94 0.96 0.91 0.89 0.87 0.86 0.85 0.86 0.92 0.94 0.91 0.92 0.93 0.88 0.85 0.85 0.89 0.99 1.06 1.12 1.11 1.15 1.23 1.31 1.40 1.43 1.46 1.54 1.72 1.65
0.69 0.73 0.75 0.76 0.81 0.82 0.81 0.82 0.80 0.75 0.72 0.74 0.80 0.80 0.80 0.80 0.81 0.82 0.79 0.76 0.82 0.82 0.79 0.84 0.88 0.95 1.03 1.09 1.27 1.39 1.30 1.20 1.23 1.39 1.52 1.56 1.67 1.65
0.64 0.65 0.68 0.69 0.70 0.77 0.77 0.71 0.66 0.63 0.61 0.62 0.65 0.70 0.73 0.71 0.71 0.69 0.65 0.60 0.68 0.74 0.76 0.79 0.80 0.82 0.88 0.97 1.13 1.30 1.33 1.34 1.31 1.36 1.44 1.49 1.41 1.32
0.56 0.57 0.55 0.53 0.56 0.61 0.60 0.56 0.54 0.55 0.54 0.54 0.56 0.57 0.56 0.59 0.61 0.59 0.56 0.57 0.63 0.64 0.66 0.69 0.69 0.74 0.83 0.95 1.10 1.25 1.30 1.17 1.13 1.21 1.26 1.18 1.09 1.15
0.53 0.50 0.46 0.43 0.44 0.48 0.50 0.49 0.48 0.49 0.51 0.53 0.51 0.49 0.47 0.49 0.48 0.48 0.50 0.50 0.51 0.51 0.56 0.61 0.64 0.70 0.75 0.76 0.83 0.91 0.93 0.89 0.84 0.85 0.98 1.08 1.08 1.11